Pampa, TX

6:33 AM CDT on June 26, 2017 (GMT -0500)
Perry Lefors

Weather History for KPPA - February, 2014

Change the Weather History Date:

Thursday, February 27, 2014

  Actual Average Record
Temperature  
Mean Temperature 40 °F -  
Max Temperature 61 °F 56 °F 80 °F (1986)
Min Temperature 18 °F 30 °F 10 °F (2015)
Degree Days  
Heating Degree Days 26    
Moisture  
Dew Point 21 °F    
Average Humidity 46    
Maximum Humidity 77    
Minimum Humidity 26    
Precipitation  
Precipitation 0.00 in - - ()
Sea Level Pressure  
Sea Level Pressure 29.84 in    
Wind  
Wind Speed 12 mph (SSW)    
Max Wind Speed 26 mph    
Max Gust Speed 33 mph    
Visibility 10 miles    
Events Rain    
Averages and records for this station are not official NWS values.
T = Trace of Precipitation, MM = Missing Value Source: NWS Daily Summary

Daily Weather History Graph

Daily Weather History Graph

Search for Another Location

Airport or City:

Trip Planner

Search our weather history database for the weather conditions in past years. The results will help you decide how hot, cold, wet, or windy it might be!

Date:

Astronomy

Feb. 27, 2014 Rise Set
Actual Time 7:16 AM CST 6:37 PM CST
Civil Twilight 6:50 AM CST 7:03 PM CST
Nautical Twilight 6:21 AM CST 7:32 PM CST
Astronomical Twilight 5:51 AM CST 8:02 PM CST
Moon 5:47 AM CST (2/27) 5:07 PM CST (2/27)
Length of Visible Light 12h 12m
Length of Day
11h 21m
Waning Crescent, 4% of the Moon is Illuminated
Feb 27
Waning Crescent
Mar 1
New
Mar 8
First Quarter
Mar 16
Full
Mar 23
Last Quarter

Hourly Weather History & Observations

Time (CST) Temp. Windchill Dew Point Humidity Pressure Visibility Wind Dir Wind Speed Gust Speed Precip Events Conditions
12:15 AM 25.2 °F 15.1 °F 10.4 °F 54% 30.05 in 10.0 mi SW 10.4 mph - N/A   Clear
12:35 AM 26.6 °F 16.2 °F 10.4 °F 51% 30.05 in 10.0 mi SW 11.5 mph - N/A   Clear
12:55 AM 26.4 °F 16.0 °F 10.4 °F 51% 30.05 in 10.0 mi SW 11.5 mph - N/A   Clear
1:15 AM 25.9 °F 16.6 °F 10.2 °F 52% 30.05 in 10.0 mi SW 9.2 mph - N/A   Clear
1:35 AM 25.3 °F 16.7 °F 10.8 °F 54% 30.05 in 10.0 mi SW 8.1 mph - N/A   Clear
1:55 AM 27.3 °F 19.9 °F 11.3 °F 51% 30.05 in 10.0 mi WSW 6.9 mph - N/A   Clear
2:15 AM 28.2 °F 23.1 °F 11.8 °F 50% 30.05 in 10.0 mi WSW 4.6 mph - N/A   Clear
2:35 AM 29.3 °F 22.3 °F 12.9 °F 51% 30.03 in 10.0 mi WSW 6.9 mph - N/A   Clear
2:55 AM 29.3 °F - 13.6 °F 52% 30.03 in 10.0 mi Calm Calm - N/A   Clear
3:15 AM 28.8 °F 22.6 °F 13.3 °F 52% 30.02 in 10.0 mi West 5.8 mph - N/A   Clear
3:35 AM 30.6 °F 24.7 °F 14.7 °F 52% 30.01 in 10.0 mi West 5.8 mph - N/A   Clear
3:55 AM 27.7 °F 20.4 °F 15.4 °F 60% 30.00 in 10.0 mi WSW 6.9 mph - N/A   Clear
4:15 AM 27.0 °F 19.5 °F 15.4 °F 62% 29.99 in 10.0 mi WSW 6.9 mph - N/A   Clear
4:35 AM 26.4 °F 18.0 °F 15.8 °F 64% 29.99 in 10.0 mi WSW 8.1 mph - N/A   Clear
4:55 AM 24.3 °F 16.3 °F 15.6 °F 70% 29.99 in 10.0 mi WSW 6.9 mph - N/A   Clear
5:15 AM 23.9 °F 16.8 °F 15.4 °F 70% 29.99 in 10.0 mi WSW 5.8 mph - N/A   Clear
5:35 AM 26.1 °F 20.5 °F 16.2 °F 66% 29.98 in 10.0 mi WSW 4.6 mph - N/A   Clear
5:55 AM 19.6 °F - 12.2 °F 73% 29.97 in 10.0 mi Calm Calm - N/A   Clear
6:15 AM 18.3 °F 11.5 °F 11.7 °F 75% 29.97 in 10.0 mi SSW 4.6 mph - N/A   Clear
6:35 AM 19.8 °F 13.2 °F 13.1 °F 75% 29.98 in 10.0 mi SSW 4.6 mph - N/A   Clear
6:55 AM 20.3 °F 9.8 °F 14.0 °F 77% 29.98 in 10.0 mi SSW 9.2 mph - N/A   Clear
7:15 AM 22.1 °F 12.0 °F 15.6 °F 76% 29.97 in 10.0 mi SSW 9.2 mph - N/A   Clear
7:35 AM 21.7 °F 12.3 °F 15.6 °F 77% 29.96 in 10.0 mi SSW 8.1 mph - N/A   Clear
7:55 AM 25.2 °F 15.7 °F 18.1 °F 75% 29.96 in 10.0 mi SSW 9.2 mph - N/A   Clear
8:15 AM 28.9 °F 22.8 °F 20.1 °F 70% 29.96 in 10.0 mi SSW 5.8 mph - N/A   Clear
8:35 AM 32.7 °F 27.3 °F 21.4 °F 63% 29.96 in 10.0 mi South 5.8 mph - N/A   Clear
8:50 AM 35.8 °F 30.9 °F 22.3 °F 58% 29.96 in 10.0 mi South 5.8 mph - N/A   Clear
9:15 AM 39.9 °F 34.5 °F 23.7 °F 52% 29.96 in 10.0 mi SSW 8.1 mph - N/A   Clear
9:35 AM 43.2 °F 37.9 °F 24.1 °F 47% 29.96 in 10.0 mi SSW 9.2 mph - N/A   Clear
9:55 AM 45.7 °F 42.0 °F 24.3 °F 43% 29.95 in 10.0 mi SSW 6.9 mph - N/A   Clear
10:15 AM 48.2 °F - 24.4 °F 39% 29.94 in 10.0 mi SSW 12.7 mph - N/A   Clear
10:35 AM 49.1 °F - 24.1 °F 38% 29.93 in 10.0 mi SSW 16.1 mph 21.9 mph N/A   Clear
10:55 AM 50.5 °F - 23.2 °F 34% 29.92 in 10.0 mi SSW 18.4 mph 24.2 mph N/A   Clear
11:15 AM 51.1 °F - 23.2 °F 34% 29.91 in 10.0 mi SSW 19.6 mph 24.2 mph N/A   Clear
11:35 AM 52.9 °F - 23.4 °F 32% 29.89 in 10.0 mi SSW 21.9 mph 26.5 mph N/A   Clear
11:55 AM 53.2 °F - 23.7 °F 32% 29.88 in 10.0 mi SSW 17.3 mph 25.3 mph N/A   Clear
12:15 PM 54.1 °F - 23.7 °F 31% 29.86 in 10.0 mi SSW 18.4 mph 27.6 mph N/A   Clear
12:35 PM 55.8 °F - 23.7 °F 29% 29.84 in 10.0 mi SSW 19.6 mph 28.8 mph N/A   Clear
12:55 PM 55.6 °F - 24.1 °F 30% 29.83 in 10.0 mi South 21.9 mph 29.9 mph N/A   Clear
1:15 PM 56.1 °F - 24.6 °F 30% 29.81 in 10.0 mi SW 20.7 mph 27.6 mph N/A   Clear
1:35 PM 56.8 °F - 24.8 °F 29% 29.79 in 10.0 mi SW 19.6 mph 27.6 mph N/A   Clear
1:55 PM 58.5 °F - 25.2 °F 28% 29.78 in 10.0 mi SSW 21.9 mph 27.6 mph N/A   Clear
2:15 PM 58.8 °F - 25.3 °F 28% 29.77 in 10.0 mi SSW 21.9 mph 31.1 mph N/A   Clear
2:35 PM 60.3 °F - 25.5 °F 27% 29.76 in 10.0 mi SSW 19.6 mph 26.5 mph N/A   Clear
2:50 PM 60.8 °F - 25.3 °F 26% 29.75 in 10.0 mi SSW 17.3 mph 26.5 mph N/A   Clear
3:15 PM 61.5 °F - 25.7 °F 26% 29.74 in 10.0 mi SSW 20.7 mph 26.5 mph N/A   Clear
3:35 PM 61.5 °F - 25.9 °F 26% 29.73 in 10.0 mi South 18.4 mph 24.2 mph N/A   Clear
3:55 PM 61.5 °F - 26.6 °F 27% 29.73 in 10.0 mi South 19.6 mph 25.3 mph N/A   Clear
4:15 PM 61.5 °F - 27.1 °F 27% 29.72 in 10.0 mi South 18.4 mph 24.2 mph N/A   Clear
4:35 PM 61.2 °F - 27.3 °F 28% 29.70 in 10.0 mi South 20.7 mph 28.8 mph N/A   Clear
4:55 PM 59.9 °F - 26.6 °F 28% 29.69 in 10.0 mi South 20.7 mph 27.6 mph N/A   Clear
5:15 PM 59.7 °F - 27.1 °F 29% 29.68 in 10.0 mi South 18.4 mph 24.2 mph N/A   Clear
5:30 PM 59.2 °F - 27.0 °F 29% 29.67 in 10.0 mi South 20.7 mph 25.3 mph N/A   Clear
5:55 PM 57.4 °F - 26.2 °F 30% 29.66 in 10.0 mi SSE 18.4 mph 25.3 mph N/A   Clear
6:15 PM 55.4 °F - 25.7 °F 32% 29.66 in 10.0 mi SSE 18.4 mph 28.8 mph N/A   Clear
6:35 PM 53.6 °F - 25.3 °F 34% 29.66 in 10.0 mi SSE 20.7 mph 27.6 mph N/A   Clear
6:55 PM 51.8 °F - 24.3 °F 34% 29.66 in 10.0 mi SSE 19.6 mph 29.9 mph N/A   Clear
7:15 PM 50.2 °F - 23.9 °F 36% 29.65 in 10.0 mi SSE 23.0 mph 31.1 mph N/A   Clear
7:35 PM 49.3 °F - 24.3 °F 38% 29.65 in 10.0 mi SSE 23.0 mph 29.9 mph N/A   Clear
7:55 PM 48.6 °F - 24.4 °F 39% 29.65 in 10.0 mi SSE 21.9 mph 28.8 mph N/A   Clear
8:15 PM 47.7 °F - 24.1 °F 40% 29.64 in 10.0 mi SSE 23.0 mph 31.1 mph N/A   Clear
8:35 PM 47.3 °F - 24.6 °F 41% 29.64 in 10.0 mi SSE 23.0 mph 31.1 mph N/A   Clear
8:55 PM 46.8 °F - 25.3 °F 43% 29.63 in 10.0 mi SSE 25.3 mph 32.2 mph N/A   Clear
9:15 PM 46.6 °F - 25.7 °F 44% 29.64 in 10.0 mi SSE 20.7 mph 31.1 mph N/A   Clear
9:35 PM 46.4 °F 38.7 °F 26.4 °F 46% 29.63 in 10.0 mi South 20.7 mph 31.1 mph N/A   Clear
9:55 PM 46.0 °F 37.2 °F 26.6 °F 47% 29.63 in 10.0 mi SSE 26.5 mph 31.1 mph N/A   Clear
10:15 PM 46.4 °F 37.9 °F 25.7 °F 44% 29.62 in 10.0 mi SSE 25.3 mph 33.4 mph N/A   Clear
10:35 PM 46.0 °F 38.0 °F 26.2 °F 46% 29.62 in 10.0 mi South 21.9 mph 33.4 mph N/A   Scattered Clouds
10:55 PM 45.5 °F 36.5 °F 26.1 °F 47% 29.62 in 10.0 mi South 26.5 mph 33.4 mph N/A   Mostly Cloudy
11:15 PM 45.3 °F 37.6 °F 26.6 °F 48% 29.61 in 10.0 mi SSE 19.6 mph 29.9 mph N/A   Mostly Cloudy
11:35 PM 45.0 °F 37.1 °F 26.8 °F 49% 29.64 in 10.0 mi South 19.6 mph 24.2 mph N/A   Overcast
11:55 PM 43.3 °F 34.7 °F 32.5 °F 66% 29.67 in 10.0 mi SSW 20.7 mph 29.9 mph N/A Rain Light Rain